This demonstration page uses our WeatherBlox Daily Observations layout. Learn more.

Left ArrowRight Arrow

39.08367, -84.50855

Hourly Observations for March 9, 2015

Temp ( °F °C ) Dew Point ( °F °C ) Humidity (%) Winds ( mph kmh ) Pressure ( in mb ) Visibility ( mi km ) Precip ( " mm )
12:53 am 00:53 Clear 33 0.6 30 -1.1 89 89 N N/A 30.19 1022 10 16.0934 N/A
1:53 am 01:53 Clear 32 undefined 30 -1.1 92 92 N N/A 30.19 1022 10 16.0934 N/A
2:53 am 02:53 Clear 29 -1.7 28 -2.2 96 96 N N/A 30.19 1023 10 16.0934 N/A
3:53 am 03:53 Clear 30 -1.1 29 -1.7 96 96 N N/A 30.21 1023 8 12.87472 N/A
4:53 am 04:53 Clear with Mist and Fog 29 -1.7 28 -2.2 96 96 N N/A 30.2 1023 6 9.65604 N/A
5:53 am 05:53 Clear 29 -1.7 29 -1.7 100 100 N N/A 30.21 1023 7 11.26538 N/A
6:53 am 06:53 Clear 31 -0.6 29 -1.7 92 92 N N/A 30.22 1023 9 14.48406 N/A
7:53 am 07:53 Clear 30 -1.1 29 -1.7 96 96 N N/A 30.24 1024 9 14.48406 N/A
8:53 am 08:53 Cloudy with Mist and Fog 31 -0.6 30 -1.1 96 96 N N/A 30.26 1025 6 9.65604 N/A
9:53 am 09:53 Cloudy 34 1.1 32 undefined 92 92 N N/A 30.27 1025 9 14.48406 N/A
10:53 am 10:53 Cloudy 38 3.3 34 1.1 86 86 N N/A 30.27 1025 10 16.0934 N/A
11:53 am 11:53 Sunny 46 7.8 37 2.8 71 71 N N/A 30.26 1025 10 16.0934 N/A
12:53 pm 12:53 Partly Cloudy 51 10.6 39 3.9 64 64 WSW 3 6 30.24 1024 10 16.0934 N/A
1:05 pm 13:05 Mostly Cloudy 51 10.6 40 4.4 66 66 S 6 9 30.24 1024 10 16.0934 N/A
1:28 pm 13:28 Mostly Sunny 52 11 41 5 67 67 SSW 7 11 30.21 1023 10 16.0934 N/A
1:53 pm 13:53 Sunny 53 11.7 40 4.4 61 61 SSW 6 9 30.22 1024 10 16.0934 N/A
2:53 pm 14:53 Mostly Sunny 55 13 39 4 55 55 S 10 17 30.18 1022 10 16.0934 N/A
3:53 pm 15:53 Sunny 56 13.3 41 5 57 57 SSW 10 17 30.19 1022 10 16.0934 N/A
4:53 pm 16:53 Mostly Cloudy 55 12.8 41 5 59 59 SSW 12 19 30.18 1022 10 16.0934 N/A
5:53 pm 17:53 Cloudy 55 12.8 41 5 59 59 SSW 9 15 30.18 1022 10 16.0934 N/A
6:53 pm 18:53 Partly Cloudy 52 11.1 40 4.4 64 64 WSW 6 9 30.18 1022 10 16.0934 N/A
7:53 pm 19:53 Clear 49 9.4 39 3.9 69 69 N N/A 30.19 1023 10 16.0934 N/A
8:53 pm 20:53 Clear 40 4.4 36 2.2 86 86 N N/A 30.21 1023 10 16.0934 N/A
9:53 pm 21:53 Cloudy 42 5.6 38 3.3 85 85 N N/A 30.22 1023 10 16.0934 N/A
10:53 pm 22:53 Cloudy 42 5.6 39 3.9 89 89 N N/A 30.22 1023 10 16.0934 N/A
11:53 pm 23:53 Cloudy 43 6.1 39 3.9 86 86 N N/A 30.19 1023 10 16.0934 N/A

Powered by AerisWeather